Vertical_Velocity
-1 0 -0 -1 -2 -1 0 -4 -1 1 -1 1 3 1 -0 -2 -0 -2 1 2 3 -2 -1 -1 -1 -2 -2 -2 1 0 -0 2 -0 3 2 -0 1 0 -3 1 -1 1 -2 -0 0 -1 0 -0 -2
-2 1 0 -2 -3 -1 -1 -2 1 1 3 2 4 2 1 -2 0 -2 4 2 2 3 -1 0 -3 -2 -2 -2 -1 -1 -0 -1 1 0 -2 -1 -1 0 1 -3 -0 1 -2 -0 1 1 1 0 -3
-2 -2 -1 -2 -2 1 1 -2 2 3 1 1 1 3 2 1 6 7 1 1 0 2 1 3 1 2 -5 -5 -2 -1 0 -5 -2 0 -1 -0 -1 -1 -2 -1 -3 1 -1 2 1 3 1 0 -2
-1 -1 -2 -3 -2 -1 1 -2 -0 0 0 3 4 6 1 6 -0 -1 0 0 2 0 4 2 0 2 2 1 -1 -2 1 -1 -2 1 1 -5 0 -4 0 -1 -4 -3 1 -0 -1 1 1 1 -2
-2 -1 -3 -1 -2 1 1 -2 -2 0 3 1 -0 5 3 5 3 1 2 0 1 1 -2 1 2 -1 -1 -1 -2 -0 -3 -1 -1 -4 -1 1 1 1 0 -1 -2 -3 -1 -3 -1 1 1 1 0
-3 -1 -3 -2 -1 0 -2 -3 -2 -1 -2 -1 1 4 6 4 5 4 4 2 3 2 1 1 -2 1 -1 -2 0 -0 -1 -1 -0 -0 2 -0 1 2 3 -1 -2 -4 0 -1 -1 0 0 1 1
-2 -1 -2 0 -1 1 2 -1 -1 -2 -5 1 4 1 -2 4 4 4 1 3 3 4 -1 -2 -1 0 1 2 -0 -4 -3 0 -1 -1 4 4 0 -1 -1 0 -1 -1 -1 -3 -1 -1 -0 2 2
-1 -1 -3 -2 -0 0 1 3 -2 -1 -2 0 -0 -2 -2 -2 -0 3 0 0 -0 2 2 4 2 2 3 -0 1 -0 -1 -4 -3 0 -1 2 4 4 -0 0 -0 -1 -1 -1 0 -2 -1 -0 0
-3 -0 -4 -3 -1 -3 -2 -3 -2 1 -3 0 -1 -0 1 -3 -1 -0 1 1 -4 -4 -3 -0 2 2 1 0 3 0 -0 1 0 -2 -2 1 -1 5 4 -3 -1 -1 -0 -0 -0 -0 -2 -1 -0
-1 -2 -1 -3 -1 -3 -3 -3 -3 1 1 1 -3 1 -0 -2 -0 -1 1 3 2 3 1 -3 -2 -0 0 1 -0 1 -3 -0 1 -0 -2 0 -2 1 -0 2 3 -6 -0 1 0 -0 -1 -1 0
-4 -3 -1 -5 -2 0 -4 -7 -3 3 0 -6 -2 0 2 -1 -4 -2 -3 -3 -3 -4 -2 1 0 2 1 2 1 -1 -1 -2 -1 -3 -2 -3 -0 -2 -1 -0 1 2 -4 1 1 1 1 -2 -1
0 -1 -0 -1 -1 -2 -2 -1 -4 -0 5 1 2 -0 -0 -2 -1 -0 0 1 -1 -1 -3 -3 -0 -2 -1 1 0 1 1 -0 -2 -1 -0 -1 -1 -1 -3 -1 -0 -2 2 -2 -4 -0 2 -1 0
-1 -1 -0 -0 -0 -1 -3 -0 -2 -2 -2 -3 1 2 3 4 3 1 0 0 0 -0 2 0 -2 -3 -1 2 0 -2 -0 1 -0 -2 -4 1 -2 1 -0 -1 -1 -0 -0 2 -0 -3 1 -2 -0
-1 -2 1 -1 -2 -1 -5 -1 2 1 -2 -0 -2 -0 -3 -3 -4 -2 -2 -2 -1 -0 -0 0 -1 -1 -2 -4 -3 -0 0 -0 -1 1 -1 -5 1 -0 -1 1 -1 -1 -2 -1 -1 1 -2 -2 -2
0 0 2 1 -1 1 -9 4 2 4 -2 -0 1 0 -0 -1 0 -0 -2 -2 -3 -1 1 2 3 -0 -3 -4 -3 -1 -3 -2 -2 0 -0 2 -3 1 -2 2 3 3 -3 -4 -1 2 -1 -2 -4
-0 3 -0 1 3 0 -6 7 -2 4 3 3 2 1 -0 1 -0 -0 -0 -1 -3 -3 -1 -2 -3 -4 -4 -2 -0 -1 -4 1 2 -3 -3 -5 -1 -2 0 -2 3 1 -1 -3 -1 -0 2 -3 -5
3 5 4 -5 2 1 -3 5 1 -0 2 3 4 4 3 1 2 0 -2 -2 -2 -2 -4 -7 -4 -2 -1 2 2 1 1 -2 -6 -4 4 -4 -9 -5 -2 5 6 -1 2 -3 -0 -6 -4 -6 -9
-1 -1 4 7 0 -3 -5 -2 -4 0 1 0 -1 -0 1 0 -1 0 1 1 1 0 -0 2 1 0 -0 0 -1 -3 -1 -1 -2 -2 -6 1 -3 -4 -7 -7 6 7 -3 1 0 -4 3 9 14
-1 0 0 11 -5 -10 -3 -0 -2 -2 -2 2 6 5 3 2 -1 -0 -2 -1 -2 -2 -1 -0 -1 -8 -9 -4 -3 -1 2 0 1 -1 -1 -0 3 -3 -4 1 -4 -4 9 5 -6 -2 8 12 32
-1 -3 6 6 -0 -20 2 2 -5 2 3 4 1 1 3 3 0 -0 -1 -0 -0 -1 -4 -6 -6 -5 -3 -4 -1 -4 -4 -2 -6 5 3 -1 -2 -4 -12 -1 1 -3 -4 8 2 -8 1 5 80
0 -2 3 -6 2 -10 -2 -13 2 -0 2 4 3 1 1 -2 -0 -0 -3 -3 -5 -4 -2 -1 -4 -4 -4 -6 -2 -2 -7 -6 2 6 11 3 2 -1 -15 -9 -1 -7 -9 2 7 -0 -12 5 9
-4 -0 -3 3 -8 -3 4 -52 -4 8 3 8 0 -2 -2 -1 1 0 -3 -3 -3 -3 -3 -5 -4 -2 -2 -5 -4 -7 -7 -1 -5 -9 -7 6 -2 0 2 -3 -6 0 -6 -4 1 10 4 -7 -4
-3 3 -1 1 -1 -8 8 -20 26 10 13 9 1 2 -0 -0 1 -0 -1 -2 -2 -4 -5 -4 -3 -5 -8 -5 -7 -6 -6 -10 -7 -1 -2 -5 -1 -6 -4 -9 -8 -0 -4 -0 2 0 3 -1 3
-1 -2 -4 3 7 -36 35 10 -31 3 8 7 3 -1 -3 -2 -2 -1 -0 -1 -2 -3 -4 -3 -4 -5 -7 -9 -8 -9 -12 -4 -6 -2 3 -3 -4 1 2 3 -4 -4 -2 3 3 1 4 7 11
-2 3 -7 -8 2 -16 6 -9 -6 2 12 2 5 -2 1 1 0 -2 -0 -0 -0 -1 -1 -3 -1 -5 -4 -4 -4 -3 -5 -3 2 0 -0 3 2 -2 -2 -3 -2 -2 -4 2 4 -1 -0 10 5
-2 -3 4 -6 0 -10 2 -24 -8 0 6 11 6 2 -1 -0 -0 -1 -1 -1 0 0 -0 -4 -2 -2 -2 -4 -5 -4 -2 2 -2 2 -7 -8 -0 -1 1 1 3 2 5 2 2 -2 -0 5 6
4 6 3 -3 4 -6 -3 -1 -2 5 7 4 2 -2 -1 0 1 3 0 1 -0 0 -1 -5 -2 -2 -1 -3 -3 -6 -3 -4 -3 -7 -3 5 -1 -1 0 -11 -6 1 -1 13 4 4 3 7 9
-5 6 2 6 1 4 -5 -12 -6 5 2 3 -1 -2 0 1 -1 1 0 -0 1 -2 -3 -0 -2 -1 -2 3 -3 -3 1 -4 -1 0 -1 -2 -10 -6 -1 2 -9 -6 0 -5 2 0 -0 4 3
-3 -2 -2 4 3 -0 -10 -4 4 3 4 -2 -3 -2 1 0 0 -0 1 0 1 -1 -2 -0 -3 -5 -1 -2 -1 1 3 -2 -3 -4 -1 -10 -1 -1 2 -12 -4 -1 2 0 -1 -0 3 9 2
1 2 -1 2 5 -1 -3 -12 7 -1 1 1 3 0 1 2 1 -1 1 2 1 0 -0 -2 -2 -1 1 -2 1 1 5 3 2 2 0 -3 -5 -1 -9 -19 -4 -6 1 -13 20 3 -1 -2 -4
Height
5859 5858 5858 5858 5861 5858 5859 5860 5860 5863 5864 5864 5864 5864 5865 5865 5865 5866 5865 5864 5863 5863 5864 5863 5863 5863 5863 5863 5863 5862 5862 5862 5862 5861 5861 5860 5859 5859 5859 5859 5858 5857 5856 5856 5855 5854 5854 5853 5852
5854 5854 5854 5854 5854 5854 5855 5856 5856 5859 5861 5860 5861 5861 5861 5862 5862 5862 5862 5861 5861 5861 5861 5860 5860 5859 5859 5858 5858 5857 5857 5857 5858 5858 5857 5857 5856 5856 5856 5857 5856 5855 5854 5853 5852 5851 5851 5850 5849
5849 5850 5850 5849 5849 5850 5851 5850 5851 5854 5856 5857 5858 5857 5857 5858 5858 5858 5857 5857 5857 5856 5856 5856 5856 5855 5854 5853 5853 5852 5852 5853 5853 5853 5853 5852 5852 5851 5852 5852 5852 5852 5851 5850 5849 5848 5848 5847 5846
5844 5845 5846 5845 5844 5844 5846 5847 5847 5849 5850 5852 5853 5853 5854 5854 5855 5855 5854 5853 5853 5852 5853 5853 5852 5851 5849 5848 5848 5847 5847 5847 5848 5848 5848 5849 5848 5847 5847 5847 5849 5848 5847 5846 5846 5846 5846 5844 5843
5839 5840 5840 5839 5840 5841 5841 5842 5842 5843 5845 5846 5847 5849 5851 5851 5852 5852 5851 5850 5850 5849 5849 5848 5847 5845 5845 5843 5842 5842 5843 5843 5843 5843 5844 5845 5844 5843 5843 5843 5843 5843 5843 5843 5842 5842 5842 5841 5840
5834 5835 5835 5834 5835 5837 5838 5839 5839 5839 5839 5840 5840 5843 5845 5846 5847 5847 5847 5846 5846 5846 5844 5843 5842 5840 5839 5838 5837 5836 5836 5836 5837 5838 5838 5839 5839 5839 5839 5839 5839 5838 5838 5839 5838 5839 5839 5839 5837
5830 5830 5830 5830 5832 5833 5835 5835 5835 5835 5834 5835 5836 5837 5839 5840 5841 5841 5840 5841 5841 5839 5837 5836 5835 5834 5833 5832 5831 5829 5831 5830 5831 5832 5832 5832 5832 5833 5834 5834 5834 5834 5835 5835 5835 5834 5834 5834 5834
5826 5827 5826 5827 5827 5829 5830 5832 5831 5829 5828 5829 5830 5831 5833 5833 5833 5834 5833 5834 5833 5832 5831 5830 5829 5828 5828 5825 5825 5824 5824 5825 5825 5826 5826 5826 5827 5826 5827 5828 5829 5829 5829 5831 5831 5831 5830 5830 5830
5822 5822 5823 5823 5823 5823 5824 5825 5825 5825 5825 5825 5826 5826 5826 5827 5827 5826 5825 5825 5827 5826 5825 5823 5822 5822 5822 5821 5820 5820 5818 5818 5819 5819 5819 5819 5820 5820 5819 5822 5822 5824 5824 5825 5825 5825 5825 5825 5825
5818 5817 5819 5820 5819 5819 5818 5818 5818 5820 5821 5821 5820 5820 5822 5821 5820 5819 5818 5818 5818 5818 5819 5818 5817 5817 5816 5815 5814 5814 5813 5812 5812 5812 5812 5812 5813 5813 5814 5816 5815 5816 5817 5818 5818 5819 5819 5819 5820
5814 5814 5815 5816 5815 5815 5814 5812 5812 5813 5814 5814 5813 5814 5814 5815 5814 5812 5811 5811 5810 5810 5810 5810 5810 5810 5809 5809 5808 5807 5806 5805 5804 5804 5804 5804 5805 5806 5807 5808 5808 5809 5809 5810 5810 5812 5813 5814 5814
5810 5810 5811 5811 5811 5811 5810 5807 5807 5808 5810 5811 5810 5809 5808 5808 5807 5806 5805 5804 5804 5804 5805 5804 5803 5803 5802 5802 5801 5800 5800 5799 5798 5797 5796 5796 5797 5797 5798 5799 5800 5801 5802 5802 5802 5803 5805 5808 5808
5804 5804 5805 5806 5806 5806 5806 5804 5803 5804 5805 5805 5805 5805 5804 5802 5801 5800 5798 5797 5797 5796 5797 5797 5796 5795 5795 5794 5793 5793 5791 5790 5790 5789 5788 5787 5787 5788 5789 5789 5790 5792 5793 5794 5794 5794 5796 5800 5802
5800 5799 5799 5799 5799 5801 5800 5799 5800 5801 5800 5799 5799 5799 5798 5796 5796 5795 5793 5792 5791 5790 5790 5789 5788 5788 5786 5785 5784 5783 5783 5782 5781 5780 5779 5779 5778 5778 5777 5778 5780 5781 5783 5784 5785 5786 5786 5790 5793
5794 5794 5793 5793 5793 5794 5794 5795 5796 5796 5795 5794 5793 5791 5791 5790 5789 5789 5788 5786 5785 5784 5782 5781 5780 5779 5778 5777 5776 5774 5773 5772 5771 5769 5768 5768 5767 5767 5766 5767 5768 5770 5771 5773 5774 5775 5777 5780 5783
5787 5788 5787 5786 5786 5787 5787 5788 5789 5789 5788 5788 5788 5787 5785 5784 5782 5781 5780 5778 5776 5775 5773 5772 5771 5769 5768 5767 5765 5763 5762 5760 5760 5759 5756 5755 5755 5755 5755 5754 5755 5757 5759 5761 5761 5764 5766 5769 5771
5780 5779 5782 5781 5780 5779 5779 5779 5779 5780 5780 5779 5779 5778 5777 5776 5774 5772 5771 5769 5767 5765 5763 5761 5759 5758 5757 5755 5753 5751 5749 5747 5745 5744 5744 5743 5741 5740 5741 5743 5742 5741 5744 5747 5748 5751 5754 5757 5761
5771 5771 5771 5773 5773 5772 5771 5771 5771 5770 5770 5770 5769 5768 5767 5766 5765 5764 5761 5759 5757 5755 5753 5751 5749 5746 5744 5741 5737 5735 5733 5731 5730 5728 5727 5727 5727 5725 5725 5726 5728 5729 5726 5732 5735 5738 5740 5739 5745
5762 5762 5762 5763 5760 5760 5761 5761 5761 5760 5758 5757 5757 5757 5756 5754 5753 5751 5749 5747 5744 5743 5741 5739 5736 5734 5731 5727 5724 5721 5718 5715 5714 5711 5708 5707 5708 5708 5707 5708 5710 5712 5713 5713 5719 5722 5722 5720 5725
5752 5751 5751 5751 5750 5749 5749 5750 5749 5749 5749 5747 5744 5743 5743 5742 5741 5739 5737 5735 5733 5730 5728 5726 5723 5720 5716 5712 5709 5705 5703 5700 5697 5695 5690 5686 5684 5684 5685 5685 5687 5691 5694 5698 5698 5704 5710 5708 5700
5739 5738 5738 5736 5735 5736 5736 5739 5738 5737 5736 5734 5733 5732 5730 5729 5728 5726 5724 5722 5721 5718 5715 5711 5707 5703 5699 5696 5692 5689 5686 5683 5680 5675 5673 5668 5664 5661 5660 5662 5663 5666 5669 5676 5681 5682 5688 5693 5701
5723 5723 5722 5722 5720 5721 5722 5722 5725 5725 5724 5722 5720 5718 5716 5715 5714 5713 5711 5710 5708 5705 5701 5697 5694 5689 5685 5681 5677 5672 5669 5666 5661 5658 5654 5649 5645 5644 5643 5644 5644 5645 5647 5650 5658 5665 5665 5669 5683
5709 5708 5708 5707 5705 5705 5707 5702 5717 5714 5713 5710 5709 5706 5704 5703 5702 5701 5699 5697 5694 5692 5688 5685 5681 5676 5672 5667 5662 5658 5653 5649 5644 5640 5637 5635 5633 5629 5629 5629 5630 5630 5631 5633 5638 5643 5646 5652 5656
5697 5695 5694 5693 5692 5690 5695 5693 5709 5699 5697 5694 5694 5693 5693 5692 5691 5689 5686 5684 5682 5679 5676 5672 5668 5664 5659 5654 5649 5643 5639 5635 5630 5627 5626 5624 5621 5616 5613 5612 5613 5614 5616 5618 5622 5626 5630 5635 5635
5683 5682 5680 5680 5678 5681 5683 5677 5690 5688 5685 5683 5681 5680 5680 5680 5678 5677 5675 5673 5670 5667 5664 5661 5657 5653 5648 5642 5637 5632 5628 5623 5618 5616 5615 5612 5608 5603 5599 5597 5596 5596 5597 5598 5603 5609 5615 5620 5622
5671 5672 5670 5668 5668 5669 5670 5669 5677 5677 5674 5671 5668 5667 5669 5668 5668 5666 5664 5662 5659 5657 5654 5651 5648 5643 5638 5632 5627 5622 5617 5611 5607 5605 5604 5600 5595 5589 5585 5581 5577 5574 5572 5575 5580 5589 5597 5604 5610
5664 5663 5662 5658 5659 5656 5659 5660 5663 5665 5663 5660 5658 5657 5658 5657 5656 5655 5653 5652 5650 5648 5645 5642 5637 5634 5629 5624 5619 5614 5607 5603 5599 5596 5595 5592 5584 5577 5571 5563 5553 5542 5539 5546 5556 5570 5582 5591 5599
5655 5655 5654 5652 5651 5649 5651 5652 5655 5654 5651 5650 5649 5649 5648 5647 5646 5645 5644 5643 5641 5639 5636 5633 5630 5627 5622 5618 5612 5607 5601 5597 5594 5590 5586 5582 5575 5567 5559 5547 5531 5524 5523 5528 5541 5553 5568 5578 5586
5647 5646 5647 5646 5645 5644 5643 5646 5646 5644 5642 5641 5642 5641 5640 5639 5638 5636 5635 5634 5632 5630 5628 5624 5622 5619 5614 5609 5605 5600 5596 5593 5589 5583 5579 5573 5567 5558 5548 5541 5528 5521 5521 5523 5531 5542 5555 5567 5577
5640 5640 5640 5638 5639 5637 5636 5639 5637 5636 5636 5635 5635 5634 5633 5632 5630 5629 5627 5625 5624 5623 5619 5617 5616 5613 5608 5603 5599 5595 5590 5588 5584 5578 5573 5567 5560 5552 5546 5541 5530 5523 5522 5525 5530 5538 5549 5560 5570